Terminal Aerodrome Forecast
Issued by NWS Tuscon, AZ

Home | Current Version | Previous Version | Text Only | Print | Product List | Glossary On
Versions: 1 2 3 4 5 6 7 8 9 10 11 12 13 14 15 16 17
000
FTUS45 KTWC 051100
TAFTUS
TAF
KTUS 051139Z 0512/0612 14007KT P6SM SKC
     FM051700 09016G25KT P6SM SKC
     FM060200 08012KT P6SM SKC=

USA.gov is the U.S. government's official web portal to all federal, state and local government web resources and services.